Simultaneous Nadir Overpasses (SNOs) Predictions

Prediction of SNOs between GOES-15 and TERRA Satellite Orbit:

Table of predicted SNOs for the next 14.0 days since TLE Epoch: 2/27/2016
Index Date Time (GOES-15) GOES-15 Lat,Lon TERRA Lat,Lon Distance(km) Time Diff (sec)
1 02/27/2016 07:49:11 -0.05,-135.18 -0.90,-139.27 464.09 80
2 02/28/2016 19:15:33 0.05,-135.13 -0.82,-131.11 457.68 80
3 02/29/2016 07:36:57 -0.05,-135.14 -0.26,-136.30 131.93 80
4 03/02/2016 07:22:02 -0.04,-135.08 0.32,-133.33 199.59 80
5 03/02/2016 19:43:16 0.04,-135.05 0.75,-138.49 390.20 80
6 03/04/2016 19:31:01 0.04,-134.99 0.16,-135.51 59.58 80
7 03/06/2016 19:21:27 0.03,-134.92 -0.44,-132.54 270.51 80
8 03/07/2016 07:40:10 -0.03,-134.93 -0.63,-137.73 319.38 80
9 03/09/2016 07:27:55 -0.03,-134.85 -0.03,-134.76 10.22 80
10 03/11/2016 07:18:20 -0.03,-134.78 0.59,-131.79 339.06 80
11 03/11/2016 19:36:55 0.03,-134.73 0.48,-136.95 251.66 80




NCC Satellite Simultaneous Nadir Overpasses (SNOs) Prediction Service
